Year,Month,Day,Hour,Minute,Value (Times are PST for temperature in C)
2017,08,04,00,00,24.90
2017,08,04,00,01,24.90
2017,08,04,00,02,24.90
2017,08,04,00,03,24.90
2017,08,04,00,04,25.00
2017,08,04,00,05,25.00
2017,08,04,00,06,25.00
2017,08,04,00,07,25.10
2017,08,04,00,08,25.10
2017,08,04,00,09,25.10
2017,08,04,00,10,25.10
2017,08,04,00,11,25.10
2017,08,04,00,12,25.10
2017,08,04,00,13,25.10
2017,08,04,00,14,25.10
2017,08,04,00,15,25.10
2017,08,04,00,16,25.10
2017,08,04,00,17,25.10
2017,08,04,00,18,25.10
2017,08,04,00,19,25.10
2017,08,04,00,20,25.10
2017,08,04,00,21,25.10
2017,08,04,00,22,25.10
2017,08,04,00,23,25.10
2017,08,04,00,24,25.10
2017,08,04,00,25,25.10
2017,08,04,00,26,25.00
2017,08,04,00,27,25.00
2017,08,04,00,28,25.00
2017,08,04,00,29,25.00
2017,08,04,00,30,24.90
2017,08,04,00,31,25.00
2017,08,04,00,32,24.90
2017,08,04,00,33,24.90
2017,08,04,00,34,24.90
2017,08,04,00,35,24.90
2017,08,04,00,36,24.90
2017,08,04,00,37,24.90
2017,08,04,00,38,24.90
2017,08,04,00,39,24.90
2017,08,04,00,40,24.90
2017,08,04,00,41,24.90
2017,08,04,00,42,24.80
2017,08,04,00,43,24.80
2017,08,04,00,44,24.80
2017,08,04,00,45,24.80
2017,08,04,00,46,24.70
2017,08,04,00,47,24.70
2017,08,04,00,48,24.70
2017,08,04,00,49,24.70
2017,08,04,00,50,24.70
2017,08,04,00,51,24.70
2017,08,04,00,52,24.60
2017,08,04,00,53,24.60
2017,08,04,00,54,24.60
2017,08,04,00,55,24.60
2017,08,04,00,56,24.50
2017,08,04,00,57,24.50
2017,08,04,00,58,24.50
2017,08,04,00,59,24.50
2017,08,04,01,00,24.60
2017,08,04,01,01,24.60
2017,08,04,01,02,24.60
2017,08,04,01,03,24.60
2017,08,04,01,04,24.60
2017,08,04,01,05,24.70
2017,08,04,01,06,24.70
2017,08,04,01,07,24.80
2017,08,04,01,08,24.80
2017,08,04,01,09,24.90
2017,08,04,01,10,24.90
2017,08,04,01,11,24.90
2017,08,04,01,12,25.00
2017,08,04,01,13,25.00
2017,08,04,01,14,25.00
2017,08,04,01,15,25.00
2017,08,04,01,16,25.00
2017,08,04,01,17,25.00
2017,08,04,01,18,25.00
2017,08,04,01,19,25.00
2017,08,04,01,20,25.10
2017,08,04,01,21,25.10
2017,08,04,01,22,25.10
2017,08,04,01,23,25.10
2017,08,04,01,24,25.10
2017,08,04,01,25,25.10
2017,08,04,01,26,25.10
2017,08,04,01,27,25.20
2017,08,04,01,28,25.20
2017,08,04,01,29,25.20
2017,08,04,01,30,25.20
2017,08,04,01,31,25.20
2017,08,04,01,32,25.30
2017,08,04,01,33,25.30
2017,08,04,01,34,25.30
2017,08,04,01,35,25.30
2017,08,04,01,36,25.30
2017,08,04,01,37,25.30
2017,08,04,01,38,25.30
2017,08,04,01,39,25.30
2017,08,04,01,40,25.30
2017,08,04,01,41,25.30
2017,08,04,01,42,25.30
2017,08,04,01,43,25.30
2017,08,04,01,44,25.30
2017,08,04,01,45,25.30
2017,08,04,01,46,25.30
2017,08,04,01,47,25.30
2017,08,04,01,48,25.30
2017,08,04,01,49,25.30
2017,08,04,01,50,25.40
2017,08,04,01,51,25.40
2017,08,04,01,52,25.40
2017,08,04,01,53,25.40
2017,08,04,01,54,25.40
2017,08,04,01,55,25.40
2017,08,04,01,56,25.40
2017,08,04,01,57,25.40
2017,08,04,01,58,25.40
2017,08,04,01,59,25.40
2017,08,04,02,00,25.40
2017,08,04,02,01,25.40
2017,08,04,02,02,25.40
2017,08,04,02,03,25.40
2017,08,04,02,04,25.30
2017,08,04,02,05,25.30
2017,08,04,02,06,25.40
2017,08,04,02,07,25.30
2017,08,04,02,08,25.30
2017,08,04,02,09,25.30
2017,08,04,02,10,25.30
2017,08,04,02,11,25.30
2017,08,04,02,12,25.30
2017,08,04,02,13,25.30
2017,08,04,02,14,25.20
2017,08,04,02,15,25.20
2017,08,04,02,16,25.20
2017,08,04,02,17,25.20
2017,08,04,02,18,25.10
2017,08,04,02,19,25.10
2017,08,04,02,20,25.10
2017,08,04,02,21,25.10
2017,08,04,02,22,25.10
2017,08,04,02,23,25.10
2017,08,04,02,24,25.00
2017,08,04,02,25,25.00
2017,08,04,02,26,24.90
2017,08,04,02,27,24.90
2017,08,04,02,28,24.90
2017,08,04,02,29,24.90
2017,08,04,02,30,24.90
2017,08,04,02,31,24.90
2017,08,04,02,32,24.90
2017,08,04,02,33,24.90
2017,08,04,02,34,24.90
2017,08,04,02,35,24.90
2017,08,04,02,36,24.90
2017,08,04,02,37,24.90
2017,08,04,02,38,24.80
2017,08,04,02,39,24.80
2017,08,04,02,40,24.80
2017,08,04,02,41,24.80
2017,08,04,02,42,24.80
2017,08,04,02,43,24.80
2017,08,04,02,44,24.80
2017,08,04,02,45,24.80
2017,08,04,02,46,24.80
2017,08,04,02,47,24.70
2017,08,04,02,48,24.70
2017,08,04,02,49,24.70
2017,08,04,02,50,24.70
2017,08,04,02,51,24.60
2017,08,04,02,52,24.50
2017,08,04,02,53,24.50
2017,08,04,02,54,24.40
2017,08,04,02,55,24.30
2017,08,04,02,56,24.20
2017,08,04,02,57,24.20
2017,08,04,02,58,24.10
2017,08,04,02,59,24.00
2017,08,04,03,00,23.90
2017,08,04,03,01,23.80
2017,08,04,03,02,23.60
2017,08,04,03,03,23.50
2017,08,04,03,04,23.40
2017,08,04,03,05,23.30
2017,08,04,03,06,23.20
2017,08,04,03,07,23.10
2017,08,04,03,08,22.90
2017,08,04,03,09,22.80
2017,08,04,03,10,22.70
2017,08,04,03,11,22.60
2017,08,04,03,12,22.50
2017,08,04,03,13,22.40
2017,08,04,03,14,22.30
2017,08,04,03,15,22.20
2017,08,04,03,16,22.20
2017,08,04,03,17,22.20
2017,08,04,03,18,22.20
2017,08,04,03,19,22.10
2017,08,04,03,20,22.10
2017,08,04,03,21,22.10
2017,08,04,03,22,22.10
2017,08,04,03,23,22.10
2017,08,04,03,24,22.20
2017,08,04,03,25,22.20
2017,08,04,03,26,22.20
2017,08,04,03,27,22.20
2017,08,04,03,28,22.20
2017,08,04,03,29,22.10
2017,08,04,03,30,22.10
2017,08,04,03,31,22.10
2017,08,04,03,32,22.00
2017,08,04,03,33,21.90
2017,08,04,03,34,21.80
2017,08,04,03,35,21.70
2017,08,04,03,36,21.60
2017,08,04,03,37,21.50
2017,08,04,03,38,21.30
2017,08,04,03,39,21.30
2017,08,04,03,40,21.20
2017,08,04,03,41,21.10
2017,08,04,03,42,21.10
2017,08,04,03,43,21.00
2017,08,04,03,44,21.00
2017,08,04,03,45,20.90
2017,08,04,03,46,20.90
2017,08,04,03,47,20.80
2017,08,04,03,48,20.80
2017,08,04,03,49,20.70
2017,08,04,03,50,20.70
2017,08,04,03,51,20.60
2017,08,04,03,52,20.60
2017,08,04,03,53,20.50
2017,08,04,03,54,20.50
2017,08,04,03,55,20.40
2017,08,04,03,56,20.40
2017,08,04,03,57,20.40
2017,08,04,03,58,20.30
2017,08,04,03,59,20.30
2017,08,04,04,00,20.30
2017,08,04,04,01,20.30
2017,08,04,04,02,20.30
2017,08,04,04,03,20.30
2017,08,04,04,04,20.30
2017,08,04,04,05,20.30
2017,08,04,04,06,20.30
2017,08,04,04,07,20.30
2017,08,04,04,08,20.40
2017,08,04,04,09,20.40
2017,08,04,04,10,20.50
2017,08,04,04,11,20.50
2017,08,04,04,12,20.60
2017,08,04,04,13,20.70
2017,08,04,04,14,20.90
2017,08,04,04,15,21.10
2017,08,04,04,16,21.20
2017,08,04,04,17,21.40
2017,08,04,04,18,21.50
2017,08,04,04,19,21.70
2017,08,04,04,20,21.80
2017,08,04,04,21,21.80
2017,08,04,04,22,21.90
2017,08,04,04,23,21.90
2017,08,04,04,24,22.00
2017,08,04,04,25,22.00
2017,08,04,04,26,22.00
2017,08,04,04,27,22.00
2017,08,04,04,28,22.00
2017,08,04,04,29,22.10
2017,08,04,04,30,22.10
2017,08,04,04,31,22.20
2017,08,04,04,32,22.30
2017,08,04,04,33,22.40
2017,08,04,04,34,22.40
2017,08,04,04,35,22.50
2017,08,04,04,36,22.60
2017,08,04,04,37,22.60
2017,08,04,04,38,22.70
2017,08,04,04,39,22.70
2017,08,04,04,40,22.70
2017,08,04,04,41,22.80
2017,08,04,04,42,22.80
2017,08,04,04,43,22.80
2017,08,04,04,44,22.70
2017,08,04,04,45,22.50
2017,08,04,04,46,22.20
2017,08,04,04,47,21.90
2017,08,04,04,48,21.70
2017,08,04,04,49,21.40
2017,08,04,04,50,21.30
2017,08,04,04,51,21.10
2017,08,04,04,52,20.90
2017,08,04,04,53,20.80
2017,08,04,04,54,20.70
2017,08,04,04,55,20.50
2017,08,04,04,56,20.40
2017,08,04,04,57,20.30
2017,08,04,04,58,20.20
2017,08,04,04,59,20.00
2017,08,04,05,00,20.00
2017,08,04,05,01,19.90
2017,08,04,05,02,19.80
2017,08,04,05,03,19.70
2017,08,04,05,04,19.70
2017,08,04,05,05,19.70
2017,08,04,05,06,19.60
2017,08,04,05,07,19.60
2017,08,04,05,08,19.60
2017,08,04,05,09,19.60
2017,08,04,05,10,19.60
2017,08,04,05,11,19.60
2017,08,04,05,12,19.60
2017,08,04,05,13,19.60
2017,08,04,05,14,19.60
2017,08,04,05,15,19.60
2017,08,04,05,16,19.60
2017,08,04,05,17,19.70
2017,08,04,05,18,19.70
2017,08,04,05,19,19.70
2017,08,04,05,20,19.80
2017,08,04,05,21,19.80
2017,08,04,05,22,19.80
2017,08,04,05,23,19.80
2017,08,04,05,24,19.80
2017,08,04,05,25,19.90
2017,08,04,05,26,19.90
2017,08,04,05,27,19.90
2017,08,04,05,28,20.00
2017,08,04,05,29,20.00
2017,08,04,05,30,20.00
2017,08,04,05,31,20.00
2017,08,04,05,32,20.00
2017,08,04,05,33,20.00
2017,08,04,05,34,20.00
2017,08,04,05,35,20.10
2017,08,04,05,36,20.10
2017,08,04,05,37,20.10
2017,08,04,05,38,20.10
2017,08,04,05,39,20.10
2017,08,04,05,40,20.10
2017,08,04,05,41,20.10
2017,08,04,05,42,20.10
2017,08,04,05,43,20.00
2017,08,04,05,44,20.00
2017,08,04,05,45,20.00
2017,08,04,05,46,19.90
2017,08,04,05,47,19.90
2017,08,04,05,48,19.90
2017,08,04,05,49,19.90
2017,08,04,05,50,19.90
2017,08,04,05,51,19.80
2017,08,04,05,52,19.80
2017,08,04,05,53,19.80
2017,08,04,05,54,19.80
2017,08,04,05,55,19.80
2017,08,04,05,56,19.80
2017,08,04,05,57,19.70
2017,08,04,05,58,19.70
2017,08,04,05,59,19.60
2017,08,04,06,00,19.60
2017,08,04,06,01,19.60
2017,08,04,06,02,19.60
2017,08,04,06,03,19.50
2017,08,04,06,04,19.60
2017,08,04,06,05,19.60
2017,08,04,06,06,19.60
2017,08,04,06,07,19.70
2017,08,04,06,08,19.70
2017,08,04,06,09,19.80
2017,08,04,06,10,19.90
2017,08,04,06,11,19.90
2017,08,04,06,12,19.90
2017,08,04,06,13,20.00
2017,08,04,06,14,20.00
2017,08,04,06,15,20.00
2017,08,04,06,16,20.00
2017,08,04,06,17,20.00
2017,08,04,06,18,20.00
2017,08,04,06,19,20.00
2017,08,04,06,20,20.00
2017,08,04,06,21,19.90
2017,08,04,06,22,19.90
2017,08,04,06,23,19.80
2017,08,04,06,24,19.80
2017,08,04,06,25,19.70
2017,08,04,06,26,19.70
2017,08,04,06,27,19.70
2017,08,04,06,28,19.60
2017,08,04,06,29,19.60
2017,08,04,06,30,19.60
2017,08,04,06,31,19.60
2017,08,04,06,32,19.60
2017,08,04,06,33,19.60
2017,08,04,06,34,19.60
2017,08,04,06,35,19.60
2017,08,04,06,36,19.60
2017,08,04,06,37,19.60
2017,08,04,06,38,19.60
2017,08,04,06,39,19.50
2017,08,04,06,40,19.50
2017,08,04,06,41,19.50
2017,08,04,06,42,19.40
2017,08,04,06,43,19.40
2017,08,04,06,44,19.40
2017,08,04,06,45,19.40
2017,08,04,06,46,19.40
2017,08,04,06,47,19.40
2017,08,04,06,48,19.40
2017,08,04,06,49,19.40
2017,08,04,06,50,19.40
2017,08,04,06,51,19.40
2017,08,04,06,52,19.50
2017,08,04,06,53,19.50
2017,08,04,06,54,19.50
2017,08,04,06,55,19.60
2017,08,04,06,56,19.60
2017,08,04,06,57,19.60
2017,08,04,06,58,19.60
2017,08,04,06,59,19.60
2017,08,04,07,00,19.60
2017,08,04,07,01,19.60
2017,08,04,07,02,19.60
2017,08,04,07,03,19.70
2017,08,04,07,04,19.70
2017,08,04,07,05,19.70
2017,08,04,07,06,19.70
2017,08,04,07,07,19.70
2017,08,04,07,08,19.70
2017,08,04,07,09,19.80
2017,08,04,07,10,19.80
2017,08,04,07,11,19.90
2017,08,04,07,12,19.90
2017,08,04,07,13,20.00
2017,08,04,07,14,20.10
2017,08,04,07,15,20.10
2017,08,04,07,16,20.10
2017,08,04,07,17,20.10
2017,08,04,07,18,20.20
2017,08,04,07,19,20.20
2017,08,04,07,20,20.20
2017,08,04,07,21,20.30
2017,08,04,07,22,20.30
2017,08,04,07,23,20.40
2017,08,04,07,24,20.40
2017,08,04,07,25,20.40
2017,08,04,07,26,20.40
2017,08,04,07,27,20.40
2017,08,04,07,28,20.50
2017,08,04,07,29,20.50
2017,08,04,07,30,20.60
2017,08,04,07,31,20.60
2017,08,04,07,32,20.60
2017,08,04,07,33,20.70
2017,08,04,07,34,20.70
2017,08,04,07,35,20.80
2017,08,04,07,36,20.80
2017,08,04,07,37,20.80
2017,08,04,07,38,20.80
2017,08,04,07,39,20.80
2017,08,04,07,40,20.70
2017,08,04,07,41,20.70
2017,08,04,07,42,20.60
2017,08,04,07,43,20.50
2017,08,04,07,44,20.50
2017,08,04,07,45,20.40
2017,08,04,07,46,20.40
2017,08,04,07,47,20.30
2017,08,04,07,48,20.30
2017,08,04,07,49,20.30
2017,08,04,07,50,20.30
2017,08,04,07,51,20.40
2017,08,04,07,52,20.40
2017,08,04,07,53,20.40
2017,08,04,07,54,20.40
2017,08,04,07,55,20.40
2017,08,04,07,56,20.30
2017,08,04,07,57,20.30
2017,08,04,07,58,20.20
2017,08,04,07,59,20.20
2017,08,04,08,00,20.20
2017,08,04,08,01,20.30
2017,08,04,08,02,20.30
2017,08,04,08,03,20.40
2017,08,04,08,04,20.50
2017,08,04,08,05,20.60
2017,08,04,08,06,20.70
2017,08,04,08,07,20.80
2017,08,04,08,08,20.90
2017,08,04,08,09,20.90
2017,08,04,08,10,20.90
2017,08,04,08,11,20.80
2017,08,04,08,12,20.80
2017,08,04,08,13,20.80
2017,08,04,08,14,20.80
2017,08,04,08,15,20.80
2017,08,04,08,16,20.90
2017,08,04,08,17,20.90
2017,08,04,08,18,20.90
2017,08,04,08,19,20.90
2017,08,04,08,20,21.00
2017,08,04,08,21,21.00
2017,08,04,08,22,21.00
2017,08,04,08,23,21.10
2017,08,04,08,24,21.10
2017,08,04,08,25,21.20
2017,08,04,08,26,21.20
2017,08,04,08,27,21.30
2017,08,04,08,28,21.30
2017,08,04,08,29,21.30
2017,08,04,08,30,21.40
2017,08,04,08,31,21.40
2017,08,04,08,32,21.50
2017,08,04,08,33,21.50
2017,08,04,08,34,21.50
2017,08,04,08,35,21.60
2017,08,04,08,36,21.60
2017,08,04,08,37,21.60
2017,08,04,08,38,21.70
2017,08,04,08,39,21.80
2017,08,04,08,40,21.80
2017,08,04,08,41,21.90
2017,08,04,08,42,22.00
2017,08,04,08,43,22.00
2017,08,04,08,44,21.80
2017,08,04,08,45,21.80
2017,08,04,08,46,21.80
2017,08,04,08,47,21.80
2017,08,04,08,48,21.80
2017,08,04,08,49,21.80
2017,08,04,08,50,21.80
2017,08,04,08,51,21.80
2017,08,04,08,52,21.80
2017,08,04,08,53,21.90
2017,08,04,08,54,22.00
2017,08,04,08,55,22.10
2017,08,04,08,56,22.20
2017,08,04,08,57,22.30
2017,08,04,08,58,22.40
2017,08,04,08,59,22.60
2017,08,04,09,00,22.70
2017,08,04,09,01,22.80
2017,08,04,09,02,22.90
2017,08,04,09,03,22.90
2017,08,04,09,04,23.00
2017,08,04,09,05,23.10
2017,08,04,09,06,23.20
2017,08,04,09,07,23.30
2017,08,04,09,08,23.30
2017,08,04,09,09,23.40
2017,08,04,09,10,23.50
2017,08,04,09,11,23.50
2017,08,04,09,12,23.60
2017,08,04,09,13,23.70
2017,08,04,09,14,23.70
2017,08,04,09,15,23.70
2017,08,04,09,16,23.80
2017,08,04,09,17,23.80
2017,08,04,09,18,23.80
2017,08,04,09,19,23.80
2017,08,04,09,20,23.90
2017,08,04,09,21,23.90
2017,08,04,09,22,24.00
2017,08,04,09,23,24.00
2017,08,04,09,24,24.00
2017,08,04,09,25,24.10
2017,08,04,09,26,24.10
2017,08,04,09,27,24.10
2017,08,04,09,28,24.20
2017,08,04,09,29,24.20
2017,08,04,09,30,24.30
2017,08,04,09,31,24.30
2017,08,04,09,32,24.40
2017,08,04,09,33,24.40
2017,08,04,09,34,24.50
2017,08,04,09,35,24.60
2017,08,04,09,36,24.60
2017,08,04,09,37,24.70
2017,08,04,09,38,24.70
2017,08,04,09,39,24.70
2017,08,04,09,40,24.70
2017,08,04,09,41,24.80
2017,08,04,09,42,24.80
2017,08,04,09,43,24.90
2017,08,04,09,44,24.90
2017,08,04,09,45,25.00
2017,08,04,09,46,25.00
2017,08,04,09,47,25.10
2017,08,04,09,48,25.10
2017,08,04,09,49,25.20
2017,08,04,09,50,25.20
2017,08,04,09,51,25.20
2017,08,04,09,52,25.20
2017,08,04,09,53,25.20
2017,08,04,09,54,25.20
2017,08,04,09,55,25.20
2017,08,04,09,56,25.20
2017,08,04,09,57,25.20
2017,08,04,09,58,25.20
2017,08,04,09,59,25.10
2017,08,04,10,00,25.10
2017,08,04,10,01,25.10
2017,08,04,10,02,25.10
2017,08,04,10,03,25.10
2017,08,04,10,04,25.10
2017,08,04,10,05,25.10
2017,08,04,10,06,25.10
2017,08,04,10,07,25.10
2017,08,04,10,08,25.10
2017,08,04,10,09,25.20
2017,08,04,10,10,25.20
2017,08,04,10,11,25.20
2017,08,04,10,12,25.20
2017,08,04,10,13,25.20
2017,08,04,10,14,25.20
2017,08,04,10,15,25.30
2017,08,04,10,16,25.30
2017,08,04,10,17,25.30
2017,08,04,10,18,25.40
2017,08,04,10,19,25.40
2017,08,04,10,20,25.40
2017,08,04,10,21,25.50
2017,08,04,10,22,25.50
2017,08,04,10,23,25.50
2017,08,04,10,24,25.60
2017,08,04,10,25,25.60
2017,08,04,10,26,25.60
2017,08,04,10,27,25.60
2017,08,04,10,28,25.70
2017,08,04,10,29,25.70
2017,08,04,10,30,25.70
2017,08,04,10,31,25.80
2017,08,04,10,32,25.90
2017,08,04,10,33,25.90
2017,08,04,10,34,26.00
2017,08,04,10,35,26.00
2017,08,04,10,36,26.10
2017,08,04,10,37,26.20
2017,08,04,10,38,26.20
2017,08,04,10,39,26.30
2017,08,04,10,40,26.30
2017,08,04,10,41,26.40
2017,08,04,10,42,26.50
2017,08,04,10,43,26.60
2017,08,04,10,44,26.60
2017,08,04,10,45,26.70
2017,08,04,10,46,26.80
2017,08,04,10,47,26.90
2017,08,04,10,48,26.90
2017,08,04,10,49,27.00
2017,08,04,10,50,27.00
2017,08,04,10,51,27.10
2017,08,04,10,52,27.10
2017,08,04,10,53,27.10
2017,08,04,10,54,27.10
2017,08,04,10,55,27.20
2017,08,04,10,56,27.20
2017,08,04,10,57,27.20
2017,08,04,10,58,27.30
2017,08,04,10,59,27.20
2017,08,04,11,00,27.20
2017,08,04,11,01,27.20
2017,08,04,11,02,27.20
2017,08,04,11,03,27.20
2017,08,04,11,04,27.30
2017,08,04,11,05,27.30
2017,08,04,11,06,27.30
2017,08,04,11,07,27.40
2017,08,04,11,08,27.40
2017,08,04,11,09,27.30
2017,08,04,11,10,27.30
2017,08,04,11,11,27.20
2017,08,04,11,12,27.20
2017,08,04,11,13,27.20
2017,08,04,11,14,27.20
2017,08,04,11,15,27.10
2017,08,04,11,16,27.00
2017,08,04,11,17,26.90
2017,08,04,11,18,26.80
2017,08,04,11,19,26.70
2017,08,04,11,20,26.60
2017,08,04,11,21,26.50
2017,08,04,11,22,26.50
2017,08,04,11,23,26.40
2017,08,04,11,24,26.40
2017,08,04,11,25,26.40
2017,08,04,11,26,26.40
2017,08,04,11,27,26.40
2017,08,04,11,28,26.40
2017,08,04,11,29,26.40
2017,08,04,11,30,26.40
2017,08,04,11,31,26.40
2017,08,04,11,32,26.30
2017,08,04,11,33,26.30
2017,08,04,11,34,26.20
2017,08,04,11,35,26.10
2017,08,04,11,36,26.10
2017,08,04,11,37,26.10
2017,08,04,11,38,26.10
2017,08,04,11,39,26.10
2017,08,04,11,40,26.20
2017,08,04,11,41,26.20
2017,08,04,11,42,26.30
2017,08,04,11,43,26.30
2017,08,04,11,44,26.30
2017,08,04,11,45,26.40
2017,08,04,11,46,26.40
2017,08,04,11,47,26.40
2017,08,04,11,48,26.50
2017,08,04,11,49,26.50
2017,08,04,11,50,26.60
2017,08,04,11,51,26.50
2017,08,04,11,52,26.40
2017,08,04,11,53,26.50
2017,08,04,11,54,26.50
2017,08,04,11,55,26.60
2017,08,04,11,56,26.70
2017,08,04,11,57,26.70
2017,08,04,11,58,26.80
2017,08,04,11,59,26.90
2017,08,04,12,00,26.90
2017,08,04,12,01,27.00
2017,08,04,12,02,27.10
2017,08,04,12,03,27.10
2017,08,04,12,04,27.20
2017,08,04,12,05,27.20
2017,08,04,12,06,27.20
2017,08,04,12,07,27.20
2017,08,04,12,08,27.30
2017,08,04,12,09,27.30
2017,08,04,12,10,27.40
2017,08,04,12,11,27.40
2017,08,04,12,12,27.50
2017,08,04,12,13,27.60
2017,08,04,12,14,27.70
2017,08,04,12,15,27.70
2017,08,04,12,16,27.70
2017,08,04,12,17,27.70
2017,08,04,12,18,27.70
2017,08,04,12,19,27.70
2017,08,04,12,20,27.70
2017,08,04,12,21,27.70
2017,08,04,12,22,27.80
2017,08,04,12,23,27.80
2017,08,04,12,24,27.80
2017,08,04,12,25,27.90
2017,08,04,12,26,28.00
2017,08,04,12,27,28.00
2017,08,04,12,28,28.10
2017,08,04,12,29,28.20
2017,08,04,12,30,28.20
2017,08,04,12,31,28.20
2017,08,04,12,32,28.20
2017,08,04,12,33,28.20
2017,08,04,12,34,28.10
2017,08,04,12,35,28.10
2017,08,04,12,36,28.00
2017,08,04,12,37,28.00
2017,08,04,12,38,28.00
2017,08,04,12,39,28.00
2017,08,04,12,40,28.00
2017,08,04,12,41,28.00
2017,08,04,12,42,27.90
2017,08,04,12,43,27.90
2017,08,04,12,44,27.90
2017,08,04,12,45,27.90
2017,08,04,12,46,27.90
2017,08,04,12,47,27.90
2017,08,04,12,48,27.90
2017,08,04,12,49,28.00
2017,08,04,12,50,28.00
2017,08,04,12,51,28.00
2017,08,04,12,52,28.00
2017,08,04,12,53,28.10
2017,08,04,12,54,28.10
2017,08,04,12,55,28.20
2017,08,04,12,56,28.20
2017,08,04,12,57,28.30
2017,08,04,12,58,28.30
2017,08,04,12,59,28.40
2017,08,04,13,00,28.40
2017,08,04,13,01,28.40
2017,08,04,13,02,28.40
2017,08,04,13,03,28.50
2017,08,04,13,04,28.50
2017,08,04,13,05,28.50
2017,08,04,13,06,28.60
2017,08,04,13,07,28.60
2017,08,04,13,08,28.60
2017,08,04,13,09,28.50
2017,08,04,13,10,28.50
2017,08,04,13,11,28.40
2017,08,04,13,12,28.50
2017,08,04,13,13,28.50
2017,08,04,13,14,28.50
2017,08,04,13,15,28.50
2017,08,04,13,16,28.60
2017,08,04,13,17,28.70
2017,08,04,13,18,28.70
2017,08,04,13,19,28.70
2017,08,04,13,20,28.80
2017,08,04,13,21,28.80
2017,08,04,13,22,28.80
2017,08,04,13,23,28.80
2017,08,04,13,24,28.80
2017,08,04,13,25,28.80
2017,08,04,13,26,28.80
2017,08,04,13,27,28.80
2017,08,04,13,28,28.80
2017,08,04,13,29,28.90
2017,08,04,13,30,28.90
2017,08,04,13,31,28.90
2017,08,04,13,32,28.90
2017,08,04,13,33,29.00
2017,08,04,13,34,29.00
2017,08,04,13,35,29.00
2017,08,04,13,36,29.00
2017,08,04,13,37,29.00
2017,08,04,13,38,29.00
2017,08,04,13,39,28.90
2017,08,04,13,40,28.90
2017,08,04,13,41,28.80
2017,08,04,13,42,28.80
2017,08,04,13,43,28.70
2017,08,04,13,44,28.70
2017,08,04,13,45,28.70
2017,08,04,13,46,28.80
2017,08,04,13,47,28.80
2017,08,04,13,48,28.80
2017,08,04,13,49,28.80
2017,08,04,13,50,28.90
2017,08,04,13,51,28.90
2017,08,04,13,52,28.90
2017,08,04,13,53,29.00
2017,08,04,13,54,29.00
2017,08,04,13,55,29.00
2017,08,04,13,56,29.00
2017,08,04,13,57,29.10
2017,08,04,13,58,29.10
2017,08,04,13,59,29.10
2017,08,04,14,00,29.10
2017,08,04,14,01,29.10
2017,08,04,14,02,29.10
2017,08,04,14,03,29.10
2017,08,04,14,04,29.00
2017,08,04,14,05,29.00
2017,08,04,14,06,28.90
2017,08,04,14,07,29.00
2017,08,04,14,08,29.00
2017,08,04,14,09,29.10
2017,08,04,14,10,29.10
2017,08,04,14,11,29.10
2017,08,04,14,12,29.20
2017,08,04,14,13,29.20
2017,08,04,14,14,29.30
2017,08,04,14,15,29.30
2017,08,04,14,16,29.30
2017,08,04,14,17,29.40
2017,08,04,14,18,29.40
2017,08,04,14,19,29.50
2017,08,04,14,20,29.60
2017,08,04,14,21,29.60
2017,08,04,14,22,29.60
2017,08,04,14,23,29.60
2017,08,04,14,24,29.60
2017,08,04,14,25,29.60
2017,08,04,14,26,29.50
2017,08,04,14,27,29.50
2017,08,04,14,28,29.40
2017,08,04,14,29,29.30
2017,08,04,14,30,29.30
2017,08,04,14,31,29.30
2017,08,04,14,32,29.30
2017,08,04,14,33,29.30
2017,08,04,14,34,29.30
2017,08,04,14,35,29.30
2017,08,04,14,36,29.30
2017,08,04,14,37,29.30
2017,08,04,14,38,29.40
2017,08,04,14,39,29.40
2017,08,04,14,40,29.40
2017,08,04,14,41,29.40
2017,08,04,14,42,29.40
2017,08,04,14,43,29.40
2017,08,04,14,44,29.50
2017,08,04,14,45,29.60
2017,08,04,14,46,29.60
2017,08,04,14,47,29.60
2017,08,04,14,48,29.60
2017,08,04,14,49,29.60
2017,08,04,14,50,29.60
2017,08,04,14,51,29.50
2017,08,04,14,52,29.40
2017,08,04,14,53,29.40
2017,08,04,14,54,29.30
2017,08,04,14,55,29.30
2017,08,04,14,56,29.30
2017,08,04,14,57,29.30
2017,08,04,14,58,29.40
2017,08,04,14,59,29.40
2017,08,04,15,00,29.40
2017,08,04,15,01,29.40
2017,08,04,15,02,29.50
2017,08,04,15,03,29.40
2017,08,04,15,04,29.40
2017,08,04,15,05,29.40
2017,08,04,15,06,29.40
2017,08,04,15,07,29.40
2017,08,04,15,08,29.50
2017,08,04,15,09,29.50
2017,08,04,15,10,29.50
2017,08,04,15,11,29.50
2017,08,04,15,12,29.60
2017,08,04,15,13,29.60
2017,08,04,15,14,29.60
2017,08,04,15,15,29.70
2017,08,04,15,16,29.70
2017,08,04,15,17,29.70
2017,08,04,15,18,29.60
2017,08,04,15,19,29.60
2017,08,04,15,20,29.60
2017,08,04,15,21,29.50
2017,08,04,15,22,29.40
2017,08,04,15,23,29.40
2017,08,04,15,24,29.40
2017,08,04,15,25,29.40
2017,08,04,15,26,29.30
2017,08,04,15,27,29.30
2017,08,04,15,28,29.30
2017,08,04,15,29,29.30
2017,08,04,15,30,29.30
2017,08,04,15,31,29.30
2017,08,04,15,32,29.30
2017,08,04,15,33,29.30
2017,08,04,15,34,29.30
2017,08,04,15,35,29.30
2017,08,04,15,36,29.30
2017,08,04,15,37,29.30
2017,08,04,15,38,29.40
2017,08,04,15,39,29.30
2017,08,04,15,40,29.20
2017,08,04,15,41,29.00
2017,08,04,15,42,28.80
2017,08,04,15,43,28.60
2017,08,04,15,44,28.50
2017,08,04,15,45,28.40
2017,08,04,15,46,28.30
2017,08,04,15,47,28.10
2017,08,04,15,48,27.80
2017,08,04,15,49,27.70
2017,08,04,15,50,27.60
2017,08,04,15,51,27.60
2017,08,04,15,52,27.60
2017,08,04,15,53,27.50
2017,08,04,15,54,27.50
2017,08,04,15,55,27.50
2017,08,04,15,56,27.60
2017,08,04,15,57,27.60
2017,08,04,15,58,27.60
2017,08,04,15,59,27.70
2017,08,04,16,00,27.70
2017,08,04,16,01,27.70
2017,08,04,16,02,27.60
2017,08,04,16,03,27.60
2017,08,04,16,04,27.60
2017,08,04,16,05,27.60
2017,08,04,16,06,27.60
2017,08,04,16,07,27.50
2017,08,04,16,08,27.50
2017,08,04,16,09,27.50
2017,08,04,16,10,27.50
2017,08,04,16,11,27.50
2017,08,04,16,12,27.50
2017,08,04,16,13,27.50
2017,08,04,16,14,27.50
2017,08,04,16,15,27.40
2017,08,04,16,16,27.40
2017,08,04,16,17,27.30
2017,08,04,16,18,27.30
2017,08,04,16,19,27.30
2017,08,04,16,20,27.20
2017,08,04,16,21,27.20
2017,08,04,16,22,27.20
2017,08,04,16,23,27.30
2017,08,04,16,24,27.30
2017,08,04,16,25,27.40
2017,08,04,16,26,27.40
2017,08,04,16,27,27.40
2017,08,04,16,28,27.30
2017,08,04,16,29,27.30
2017,08,04,16,30,27.20
2017,08,04,16,31,27.20
2017,08,04,16,32,27.20
2017,08,04,16,33,27.20
2017,08,04,16,34,27.20
2017,08,04,16,35,27.20
2017,08,04,16,36,27.20
2017,08,04,16,37,27.20
2017,08,04,16,38,27.20
2017,08,04,16,39,27.20
2017,08,04,16,40,27.20
2017,08,04,16,41,27.20
2017,08,04,16,42,27.20
2017,08,04,16,43,27.20
2017,08,04,16,44,27.20
2017,08,04,16,45,27.20
2017,08,04,16,46,27.20
2017,08,04,16,47,27.30
2017,08,04,16,48,27.30
2017,08,04,16,49,27.30
2017,08,04,16,50,27.30
2017,08,04,16,51,27.40
2017,08,04,16,52,27.40
2017,08,04,16,53,27.40
2017,08,04,16,54,27.50
2017,08,04,16,55,27.50
2017,08,04,16,56,27.50
2017,08,04,16,57,27.50
2017,08,04,16,58,27.40
2017,08,04,16,59,27.40
2017,08,04,17,00,27.40
2017,08,04,17,01,27.30
2017,08,04,17,02,27.30
2017,08,04,17,03,27.30
2017,08,04,17,04,27.30
2017,08,04,17,05,27.40
2017,08,04,17,06,27.30
2017,08,04,17,07,27.30
2017,08,04,17,08,27.30
2017,08,04,17,09,27.20
2017,08,04,17,10,27.20
2017,08,04,17,11,27.20
2017,08,04,17,12,27.20
2017,08,04,17,13,27.20
2017,08,04,17,14,27.30
2017,08,04,17,15,27.30
2017,08,04,17,16,27.40
2017,08,04,17,17,27.40
2017,08,04,17,18,27.40
2017,08,04,17,19,27.40